Location: Silverdale
(47.6506°N, 122.6941°W)
Time: 09:56:39
(UTC+00:00)

Transit 2A - Pass Details

Date: 14 October 2022
Orbit: 598 x 959 km, 66.7° (Epoch: 01 December)

Event Time Altitude Azimuth Distance (km) Brightness Sun altitude
Exits shadow 13:05:56 - 323° (NW) 2,435 8.3 -14.6°
Reaches altitude 10° 13:06:47 10° 322° (NW) 2,107 8.0 -14.5°
Maximum altitude 13:11:32 73° 239° (WSW) 755 5.8 -13.7°
Drops below altitude 10° 13:16:47 10° 155° (SSE) 2,319 8.8 -12.8°
Sets 13:19:19 0° 154° (SSE) 3,305 9.6 -12.4°
